IBE07NL EGLL-LEMD

Flight info

Callsign IBE07NL
Flight time N/A
Altitude 37000
Route GASGU2J GASGU N866 SAM M195 MARUK N621 LELNA DCT NOVAN DCT DELOG N864 NONTU NONTU3A
Aircraft A346/H-SDE2E3FGHIJ3J4J5M1RWXY/LB1D1

Departure

Time 2026-05-07 16:50
Airport London Heathrow Airport (EGLL)

Arrival

Time N/A
Airport Adolfo Suárez Madrid–Barajas Airport (LEMD)
Time Latitude Longitude Altitude Speed Heading
2026-05-07 16:31 51.47247 -0.48249 94 ft 0 kts 90°
2026-05-07 16:37 51.47248 -0.48270 97 ft 4 kts 93°
2026-05-07 16:38 51.47251 -0.48310 96 ft 4 kts 108°
2026-05-07 16:38 51.47262 -0.48342 95 ft 4 kts 132°
2026-05-07 16:38 51.47276 -0.48359 97 ft 4 kts 167°
2026-05-07 16:38 51.47285 -0.48361 95 ft 0 kts 179°
2026-05-07 16:42 51.47283 -0.48361 95 ft 1 kts 180°
2026-05-07 16:42 51.47264 -0.48361 96 ft 4 kts 180°
2026-05-07 16:43 51.47222 -0.48359 95 ft 8 kts 179°
2026-05-07 16:43 51.47154 -0.48358 97 ft 12 kts 179°
2026-05-07 16:43 51.47062 -0.48357 97 ft 15 kts 180°
2026-05-07 16:43 51.46946 -0.48356 97 ft 17 kts 178°
2026-05-07 16:44 51.46844 -0.48352 95 ft 0 kts 179°
2026-05-07 16:45 51.46842 -0.48352 95 ft 1 kts 179°
2026-05-07 16:45 51.46821 -0.48352 95 ft 5 kts 179°
2026-05-07 16:45 51.46777 -0.48362 95 ft 7 kts 199°
2026-05-07 16:45 51.46748 -0.48439 97 ft 10 kts 252°
2026-05-07 16:46 51.46739 -0.48568 95 ft 13 kts 266°
2026-05-07 16:46 51.46735 -0.48663 95 ft 7 kts 251°
2026-05-07 16:46 51.46690 -0.48724 98 ft 10 kts 202°
2026-05-07 16:46 51.46636 -0.48753 97 ft 5 kts 195°
2026-05-07 16:47 51.46579 -0.48775 97 ft 11 kts 190°
2026-05-07 16:47 51.46501 -0.48756 97 ft 12 kts 148°
2026-05-07 16:47 51.46484 -0.48697 97 ft 5 kts 101°
2026-05-07 16:47 51.46479 -0.48624 95 ft 8 kts 94°
2026-05-07 16:48 51.46478 -0.48518 95 ft 11 kts 90°
2026-05-07 16:48 51.46478 -0.48482 95 ft 2 kts 90°
2026-05-07 16:48 51.46478 -0.48451 95 ft 3 kts 89°
2026-05-07 16:48 51.46478 -0.48434 95 ft 1 kts 89°
2026-05-07 16:49 51.46478 -0.48427 95 ft 0 kts 89°
2026-05-07 16:49 51.46480 -0.48124 96 ft 64 kts 89°
2026-05-07 16:49 51.46487 -0.47026 99 ft 130 kts 89°
2026-05-07 16:49 51.46499 -0.45285 146 ft 176 kts 89°
2026-05-07 16:50 51.46521 -0.43425 1052 ft 159 kts 89°
2026-05-07 16:50 51.46481 -0.41590 1601 ft 172 kts 103°
2026-05-07 16:50 51.45984 -0.39793 2147 ft 183 kts 127°
2026-05-07 16:50 51.45117 -0.38177 2604 ft 198 kts 128°
2026-05-07 16:51 51.44274 -0.36274 3049 ft 215 kts 124°
2026-05-07 16:51 51.43277 -0.34368 3423 ft 237 kts 146°
2026-05-07 16:51 51.41648 -0.33575 3919 ft 254 kts 178°
2026-05-07 16:51 51.39806 -0.33540 4775 ft 259 kts 179°
2026-05-07 16:52 51.37997 -0.33934 5448 ft 262 kts 202°
2026-05-07 16:52 51.36444 -0.35551 5881 ft 264 kts 221°
2026-05-07 16:52 51.35104 -0.37633 5932 ft 265 kts 225°
2026-05-07 16:52 51.33795 -0.39737 5938 ft 266 kts 224°
2026-05-07 16:53 51.32414 -0.41819 6291 ft 278 kts 220°
2026-05-07 16:53 51.30880 -0.43731 7439 ft 273 kts 222°
2026-05-07 16:53 51.29769 -0.46201 8588 ft 271 kts 249°
2026-05-07 16:53 51.29301 -0.49159 9570 ft 274 kts 259°
2026-05-07 16:54 51.28944 -0.52191 10453 ft 281 kts 258°
2026-05-07 16:54 51.28661 -0.54276 10895 ft 291 kts 257°
2026-05-07 16:54 51.28150 -0.57526 11444 ft 309 kts 255°
2026-05-07 16:54 51.27523 -0.60951 11954 ft 328 kts 253°
2026-05-07 16:55 51.26832 -0.64537 12456 ft 346 kts 252°
2026-05-07 16:55 51.26101 -0.68273 13160 ft 355 kts 252°
2026-05-07 16:55 51.25359 -0.72067 14002 ft 359 kts 252°
2026-05-07 16:55 51.24612 -0.75884 14844 ft 361 kts 252°
2026-05-07 16:56 51.23855 -0.79747 15640 ft 366 kts 252°
2026-05-07 16:56 51.23089 -0.83652 16387 ft 370 kts 252°
2026-05-07 16:56 51.21517 -0.91583 17859 ft 378 kts 250°
2026-05-07 16:57 51.20390 -0.95408 18543 ft 383 kts 239°
2026-05-07 16:57 51.18813 -0.98858 19233 ft 386 kts 228°
2026-05-07 16:57 51.16917 -1.01923 19919 ft 390 kts 224°
2026-05-07 16:57 51.14945 -1.04921 20589 ft 394 kts 223°
2026-05-07 16:58 51.12942 -1.07947 21212 ft 398 kts 223°
2026-05-07 16:58 51.10920 -1.11012 21830 ft 402 kts 224°
2026-05-07 16:58 51.08891 -1.14103 22472 ft 405 kts 224°
2026-05-07 16:58 51.06855 -1.17213 23161 ft 408 kts 224°
2026-05-07 16:59 51.04770 -1.20397 23780 ft 413 kts 224°
2026-05-07 16:59 51.02684 -1.23583 24389 ft 417 kts 224°
2026-05-07 16:59 51.00575 -1.26799 24985 ft 421 kts 224°
2026-05-07 16:59 50.98452 -1.30028 25592 ft 425 kts 223°
2026-05-07 17:00 50.96177 -1.33226 26195 ft 428 kts 220°
2026-05-07 17:00 50.93809 -1.36177 26755 ft 432 kts 216°
2026-05-07 17:00 50.91325 -1.38902 27303 ft 435 kts 213°
2026-05-07 17:00 50.88785 -1.41540 27837 ft 439 kts 213°
2026-05-07 17:01 50.86216 -1.44203 28355 ft 442 kts 213°
2026-05-07 17:01 50.83616 -1.46897 28860 ft 446 kts 213°
2026-05-07 17:01 50.80941 -1.49669 29370 ft 449 kts 213°
2026-05-07 17:01 50.78296 -1.52409 29874 ft 452 kts 213°
2026-05-07 17:02 50.75693 -1.55102 30537 ft 450 kts 213°
2026-05-07 17:02 50.73081 -1.57802 31233 ft 447 kts 213°
2026-05-07 17:02 50.70484 -1.60490 31892 ft 445 kts 213°
2026-05-07 17:02 50.67898 -1.63159 32500 ft 444 kts 213°
2026-05-07 17:03 50.65312 -1.65824 33078 ft 443 kts 213°
2026-05-07 17:03 50.62738 -1.68471 33646 ft 442 kts 213°
2026-05-07 17:03 50.60162 -1.71115 34213 ft 440 kts 213°
2026-05-07 17:03 50.57657 -1.73682 34732 ft 439 kts 213°
2026-05-07 17:04 50.55069 -1.76331 35266 ft 438 kts 213°
2026-05-07 17:04 50.52499 -1.78960 35722 ft 438 kts 213°
2026-05-07 17:04 50.49938 -1.81579 36101 ft 439 kts 213°
2026-05-07 17:04 50.47364 -1.84207 36438 ft 441 kts 213°
2026-05-07 17:05 50.44777 -1.86842 36753 ft 443 kts 213°
2026-05-07 17:05 50.42189 -1.89475 36979 ft 446 kts 213°
2026-05-07 17:05 50.37024 -1.94712 36985 ft 447 kts 213°
2026-05-07 17:06 50.31563 -2.00177 36985 ft 447 kts 210°
2026-05-07 17:06 50.25443 -2.04794 36983 ft 447 kts 200°
2026-05-07 17:07 50.19778 -2.07404 36981 ft 447 kts 192°
2026-05-07 17:07 50.13784 -2.08689 36983 ft 447 kts 185°
2026-05-07 17:08 50.07842 -2.09420 36983 ft 447 kts 185°
2026-05-07 17:08 50.02112 -2.10212 36983 ft 447 kts 187°
2026-05-07 17:09 49.96924 -2.11551 36984 ft 447 kts 192°
2026-05-07 17:09 49.91178 -2.13955 36984 ft 447 kts 197°
2026-05-07 17:10 49.85217 -2.16759 36983 ft 447 kts 197°
2026-05-07 17:10 49.79262 -2.19537 36984 ft 447 kts 197°
2026-05-07 17:11 49.73297 -2.22310 36984 ft 447 kts 197°
2026-05-07 17:11 49.67376 -2.25054 36975 ft 447 kts 197°
2026-05-07 17:12 49.61412 -2.27811 36984 ft 447 kts 197°
2026-05-07 17:12 49.55457 -2.30556 36983 ft 447 kts 197°
2026-05-07 17:13 49.49488 -2.33302 36977 ft 447 kts 197°
2026-05-07 17:13 49.43534 -2.36034 36983 ft 447 kts 197°
2026-05-07 17:14 49.37566 -2.38765 36983 ft 447 kts 197°
2026-05-07 17:14 49.31595 -2.41491 36984 ft 447 kts 197°
2026-05-07 17:15 49.25633 -2.44205 36983 ft 447 kts 197°
2026-05-07 17:15 49.19673 -2.46911 36983 ft 447 kts 197°
2026-05-07 17:16 49.14054 -2.49456 36983 ft 447 kts 197°
2026-05-07 17:16 49.08884 -2.51793 36979 ft 447 kts 197°
2026-05-07 17:17 49.03842 -2.54067 36983 ft 447 kts 197°
2026-05-07 17:17 48.99024 -2.56236 36983 ft 447 kts 197°
2026-05-07 17:18 48.94431 -2.58299 36983 ft 447 kts 197°
2026-05-07 17:18 48.89686 -2.60426 36983 ft 447 kts 197°
2026-05-07 17:19 48.84103 -2.62924 36983 ft 447 kts 197°
2026-05-07 17:19 48.78404 -2.65467 36983 ft 447 kts 197°
2026-05-07 17:20 48.72441 -2.68122 36983 ft 447 kts 196°
2026-05-07 17:20 48.66468 -2.70775 36983 ft 447 kts 196°
2026-05-07 17:21 48.60499 -2.73419 36983 ft 447 kts 196°
2026-05-07 17:21 48.54534 -2.76055 36983 ft 447 kts 196°
2026-05-07 17:22 48.48590 -2.78675 36980 ft 447 kts 196°
2026-05-07 17:22 48.42607 -2.81306 36983 ft 448 kts 196°
2026-05-07 17:23 48.36622 -2.83932 36983 ft 448 kts 196°
2026-05-07 17:23 48.30617 -2.86559 36984 ft 448 kts 196°
2026-05-07 17:24 48.24627 -2.89174 36983 ft 448 kts 196°
2026-05-07 17:24 48.18633 -2.91785 36984 ft 448 kts 196°
2026-05-07 17:25 48.12646 -2.94386 36984 ft 448 kts 196°
2026-05-07 17:25 48.06662 -2.96979 36984 ft 447 kts 196°
2026-05-07 17:26 48.00688 -2.99561 36984 ft 447 kts 196°
2026-05-07 17:26 47.94709 -3.02140 36983 ft 447 kts 196°
2026-05-07 17:27 47.88712 -3.04720 36980 ft 447 kts 196°
2026-05-07 17:27 47.82729 -3.07288 36984 ft 447 kts 196°
2026-05-07 17:28 47.76746 -3.09850 36983 ft 447 kts 196°
2026-05-07 17:28 47.70764 -3.12405 36983 ft 447 kts 196°
2026-05-07 17:29 47.64788 -3.14951 36984 ft 447 kts 196°
2026-05-07 17:29 47.59106 -3.17367 36983 ft 447 kts 196°
2026-05-07 17:30 47.53309 -3.19826 36983 ft 447 kts 196°
2026-05-07 17:30 47.47955 -3.22092 36983 ft 447 kts 196°
2026-05-07 17:31 47.42648 -3.24333 36983 ft 447 kts 196°
2026-05-07 17:31 47.37427 -3.26533 36983 ft 446 kts 196°
2026-05-07 17:32 47.32361 -3.28664 36983 ft 446 kts 196°
2026-05-07 17:32 47.27780 -3.30587 36983 ft 447 kts 196°
2026-05-07 17:33 47.20881 -3.33477 36983 ft 446 kts 196°
2026-05-07 17:33 47.14906 -3.35974 36983 ft 446 kts 196°
2026-05-07 17:34 47.09052 -3.38414 36983 ft 446 kts 196°
2026-05-07 17:34 47.03339 -3.40790 36983 ft 446 kts 196°
2026-05-07 17:35 46.97886 -3.43052 36983 ft 446 kts 196°
2026-05-07 17:35 46.92679 -3.45209 36983 ft 446 kts 196°
2026-05-07 17:36 46.87102 -3.47513 36983 ft 446 kts 196°
2026-05-07 17:36 46.82290 -3.49497 36983 ft 446 kts 196°
2026-05-07 17:37 46.77598 -3.51428 36983 ft 446 kts 196°
2026-05-07 17:37 46.72993 -3.53320 36983 ft 446 kts 196°
2026-05-07 17:38 46.68370 -3.55216 36983 ft 446 kts 196°
2026-05-07 17:38 46.63736 -3.57113 36983 ft 446 kts 196°
2026-05-07 17:39 46.58664 -3.59184 36983 ft 446 kts 196°
2026-05-07 17:39 46.53568 -3.61261 36983 ft 446 kts 195°
2026-05-07 17:40 46.49014 -3.63113 36983 ft 446 kts 195°
2026-05-07 17:40 46.44386 -3.64991 36983 ft 446 kts 195°
2026-05-07 17:41 46.39808 -3.66846 36983 ft 446 kts 195°
2026-05-07 17:41 46.35157 -3.68694 36982 ft 446 kts 194°
2026-05-07 17:42 46.30567 -3.70065 36983 ft 446 kts 189°
2026-05-07 17:42 46.25813 -3.70904 36984 ft 446 kts 186°
2026-05-07 17:43 46.21080 -3.71600 36984 ft 446 kts 186°
2026-05-07 17:43 46.16341 -3.72301 36983 ft 446 kts 186°
2026-05-07 17:44 46.11637 -3.73000 36983 ft 446 kts 186°
2026-05-07 17:44 46.06931 -3.73699 36983 ft 446 kts 186°
2026-05-07 17:45 46.02209 -3.74399 36983 ft 446 kts 186°
2026-05-07 17:45 45.97472 -3.75101 36983 ft 446 kts 186°
2026-05-07 17:46 45.92716 -3.75804 36983 ft 446 kts 186°
2026-05-07 17:46 45.88040 -3.76495 36983 ft 446 kts 186°
2026-05-07 17:47 45.83293 -3.77194 36983 ft 446 kts 186°
2026-05-07 17:47 45.78588 -3.77887 36983 ft 446 kts 186°
2026-05-07 17:48 45.73845 -3.78583 36983 ft 446 kts 186°
2026-05-07 17:48 45.69133 -3.79274 36983 ft 446 kts 186°
2026-05-07 17:49 45.64412 -3.79965 36983 ft 446 kts 186°
2026-05-07 17:49 45.59417 -3.80695 36983 ft 446 kts 186°
2026-05-07 17:50 45.54004 -3.81484 36983 ft 446 kts 186°
2026-05-07 17:50 45.49320 -3.82166 36983 ft 446 kts 186°
2026-05-07 17:51 45.44573 -3.82856 36983 ft 446 kts 186°
2026-05-07 17:51 45.39850 -3.83541 36983 ft 446 kts 186°
2026-05-07 17:52 45.35135 -3.84224 36983 ft 446 kts 186°
2026-05-07 17:52 45.30431 -3.84904 36983 ft 446 kts 186°
2026-05-07 17:53 45.25781 -3.85576 36983 ft 446 kts 186°
2026-05-07 17:53 45.21071 -3.86254 36983 ft 446 kts 186°
2026-05-07 17:54 45.16415 -3.86924 36983 ft 446 kts 186°
2026-05-07 17:54 45.11649 -3.87608 36983 ft 446 kts 186°
2026-05-07 17:55 45.07010 -3.88274 36983 ft 446 kts 186°
2026-05-07 17:55 45.02275 -3.88951 36979 ft 446 kts 186°
2026-05-07 17:56 44.97541 -3.89628 36983 ft 446 kts 186°
2026-05-07 17:56 44.92855 -3.90297 36983 ft 446 kts 186°
2026-05-07 17:57 44.88931 -3.90856 36983 ft 446 kts 186°
2026-05-07 17:57 44.83406 -3.91642 36983 ft 446 kts 186°
2026-05-07 17:58 44.78709 -3.92309 36983 ft 446 kts 186°
2026-05-07 17:58 44.73472 -3.93051 36974 ft 446 kts 186°
2026-05-07 17:59 44.68685 -3.93727 36980 ft 446 kts 186°
2026-05-07 17:59 44.63968 -3.94393 36982 ft 446 kts 186°
2026-05-07 18:00 44.58339 -3.95185 36970 ft 446 kts 186°
2026-05-07 18:00 44.52416 -3.96017 36983 ft 446 kts 186°
2026-05-07 18:01 44.46265 -3.96878 36983 ft 446 kts 186°
2026-05-07 18:01 44.40098 -3.97740 37001 ft 446 kts 186°
2026-05-07 18:02 44.30905 -3.98479 36985 ft 446 kts 179°
2026-05-07 18:03 44.24996 -3.97996 36985 ft 446 kts 176°
2026-05-07 18:03 44.18909 -3.97392 36983 ft 446 kts 176°
2026-05-07 18:04 44.12798 -3.96792 36983 ft 446 kts 176°
2026-05-07 18:04 44.06670 -3.96193 36983 ft 446 kts 176°
2026-05-07 18:05 44.00492 -3.95591 36983 ft 446 kts 176°
2026-05-07 18:05 43.94304 -3.94989 36983 ft 446 kts 176°
2026-05-07 18:06 43.88134 -3.94389 36983 ft 446 kts 176°
2026-05-07 18:06 43.82400 -3.93832 36983 ft 446 kts 176°
2026-05-07 18:07 43.76451 -3.93257 36983 ft 446 kts 176°
2026-05-07 18:07 43.70460 -3.92683 36983 ft 446 kts 176°
2026-05-07 18:08 43.64203 -3.92082 36983 ft 446 kts 176°
2026-05-07 18:08 43.57968 -3.91481 36983 ft 446 kts 176°
2026-05-07 18:09 43.51686 -3.90877 36983 ft 446 kts 176°
2026-05-07 18:09 43.45464 -3.90522 36983 ft 446 kts 181°
2026-05-07 18:10 43.39253 -3.91079 36983 ft 446 kts 186°
2026-05-07 18:10 43.33358 -3.91971 36974 ft 446 kts 186°
2026-05-07 18:11 43.29537 -3.92546 36980 ft 446 kts 186°
2026-05-07 18:11 43.25451 -3.93156 36982 ft 447 kts 186°